User: anonymous   Login
Location: Unspecified
(0.0000°N, 0.0000°E)
Time: 09:30:16
(UTC+01:00)
Language:

ARIANE 5 R/B - Orbit

View from above orbital plane
View from above orbital plane
View from above satellite
View from above satellite

Ground track
Ground track

The orbit data is extracted from the following two-line orbital elements,

1 28886U 05041C   14297.67820450 -.00000015  00000-0  46746-3 0  6317
2 28886 008.3276 008.3446 7182251 100.8184 308.1128 02.24312521 74032
Epoch (UTC): 24 October 2014 16:16:36
Eccentricity: 0.7182251
inclination: 8.3276°
perigee height: 568 km
apogee height: 35977 km
right ascension of ascending node: 8.3446°
argument of perigee: 100.8184°
revolutions per day: 2.24312521
mean anomaly at epoch: 308.1128°
orbit number at epoch: 7403

The dashed part of the orbit path shows where the satellite is in the earth's shadow,  

DLR